Terug naar catalogus

HULIANWANG DIGUI-36

ActiefCommunicatiePO
NORAD 64957·PAYLOAD·🇨🇳 China

Gelanceerd Jul 27, 2025 vanaf Taiyuan Satellite Launch Center

Loading…

Volgende Passages (komende 24 uur)

TLE

VersSource: Space-Track

Epoch: Sep 14, 2026, 22:09 UTC

1 64957U 25159B   26257.92338371 -.00000073  00000-0 -20444-3 0  9990
2 64957  86.4914 252.1771 0002236  89.9444 270.1946 13.24403427 55000

Volg HULIANWANG DIGUI-36 in realtime met AllMySat

Download on the App Store